Regional Weather Roundup
Issued by NWS

Home | Current Version | Previous Version | Graphics & Text | Print | Product List | Glossary On
Versions: 1 2 3 4 5 6 7 8 9 10 11 12 13 14 15 16 17 18 19 20 21 22 23 24 25 26 27 28 29 30 31 32 33 34 35 36 37 38 39 40 41 42 43 44 45 46 47 48 49 50
000
ASUS44 KMEG 262200
RWRTN
TENNESSEE HOURLY STATE WEATHER ROUNDUP
NATIONAL WEATHER SERVICE MEMPHIS TN
400 PM CST MON JAN 26 2015

TNZ002-004-019-021-049-052-054-088>092-262300-
WEST TENNESSEE

CITY           SKY/WX    TMP DP  RH WIND       PRES   REMARKS
MEMPHIS INTL   MOSUNNY   49  31  49 SW9       29.97F
NWS MEMPHIS      N/A     48 N/A N/A MISG        N/A
JACKSON        MOSUNNY   44  30  57 W12       29.96F
DYERSBURG      PTSUNNY   43  23  45 W10       29.98F
UNION CITY     PTSUNNY   37  30  75 SW8       29.94F WCI  31
PARIS          PTSUNNY   37  27  65 W7        29.94F WCI  32
LEXINGTON      CLOUDY    41  27  56 W9        29.94F
SAVANNAH       PTSUNNY   43  28  56 W8        29.97S
$$

TNZ008-025-027-028-033-062-065-066-262300-
NORTH MIDDLE TENNESSEE

CITY           SKY/WX    TMP DP  RH WIND       PRES   REMARKS
NASHVILLE      CLOUDY    36  28  73 W6        29.97R WCI  31
CLARKSVILLE    CLOUDY    37  26  64 W8        29.95F WCI  31
COOKEVILLE     CLOUDY    32  28  86 NW6       29.92S WCI  26
CROSSVILLE     CLOUDY    28  25  88 W8        29.89R WCI  20
$$

TNZ061-075-076-078-094-096-097-262300-
SOUTH MIDDLE TENNESSEE

CITY           SKY/WX    TMP DP  RH WIND       PRES   REMARKS
FAYETTEVILLE   MOSUNNY   36  27  69 MISG      29.95R
TULLAHOMA      CLOUDY    34  27  75 W6        29.94S WCI  29
WINCHESTER     CLOUDY    36  28  75 W3        29.95S
MCMINNVILLE    CLOUDY    32  28  86 W6        29.93S WCI  26
SHELBYVILLE    PTSUNNY   36  30  80 W8        29.96S WCI  29
$$

TNZ017-018-042-046-047-262300-
NORTHEAST TENNESSEE

CITY           SKY/WX    TMP DP  RH WIND       PRES   REMARKS
TRI CITIES     CLOUDY    31  27  85 W13G22    29.81R WCI  21
ELIZABETHTON   FLURRIES  30  27  86 W12       29.79R WCI  21
$$

TNZ012-013-036-069-073-074-262300-
CENTRAL EAST TENNESSEE

CITY           SKY/WX    TMP DP  RH WIND       PRES   REMARKS
KNOXVILLE      CLOUDY    32  28  85 W8        29.91R WCI  25
OAK RIDGE      CLOUDY    35  25  66 W5        29.92R WCI  31
GATLINBURG     CLOUDY    32  27  80 W3        29.89R
MORRISTOWN     PTCLDY    30  27  86 W8        29.87R WCI  23
$$

TNZ083-085-099-262300-
SOUTHEAST TENNESSEE

CITY           SKY/WX    TMP DP  RH WIND       PRES   REMARKS
CHATTANOOGA    PTSUNNY   38  27  64 NW12      29.95R WCI  30
$$

SKY/WX REPORTED AS FAIR MEANS FEW OR NO CLOUDS BELOW
12 THOUSAND FEET.




USA.gov is the U.S. government's official web portal to all federal, state and local government web resources and services.